Tracking 19709 objects as of 17-Jun-2019
HD Live streaming from Space Station
objects crossing your sky now

THORAD AGENA D DEB

Track THORAD AGENA D DEB now!
10-day predictions


NORAD ID: 42494
Int'l Code: 1970-025QY
Perigee: 973.6 km
Apogee: 1,124.7 km
Inclination: 99.9 °
Period: 106.0 minutes
Semi major axis: 7420 km
RCS: Unknown
Launch date: April 8, 1970
Source: United States (US)
Launch site: AIR FORCE WESTERN TEST RANGE (AFWTR)

Note: This is SATELLITE DEBRIS
aabbcc
Your satellite tracking list
Your tracking list is empty




NASA's NSSDC Master Catalog

Two Line Element Set (TLE):
1 42494U 70025QY  19147.90832465  .00000094  00000-0  18585-3 0  9999
2 42494  99.9497 190.3908 0101817 157.2392 203.3307 13.58273936261373
Source of the keplerian elements: AFSPC